| time (UTC) | temp C | wind direction | speed KPH | gust KPH | rain 1hr cm | rain 24hr cm | rain mn cm | humidity % | barometer mb |
| 20260506205008 | 21 | 158 | 1.6 | 9.7 | 0.00 | 0.25 | 0.25 | 78 | 1010.1 |
| 20260506204536 | 21 | 238 | 1.6 | 6.4 | 0.00 | 0.25 | 0.25 | 78 | 1010.2 |
| 20260506204006 | 21 | 116 | 1.6 | 4.8 | 0.00 | 0.25 | 0.25 | 80 | 1010.1 |
| 20260506203511 | 21 | 192 | 1.6 | 4.8 | 0.00 | 0.25 | 0.25 | 81 | 1010.1 |
| 20260506203028 | 21 | 130 | 0.0 | 4.8 | 0.00 | 0.25 | 0.25 | 82 | 1010.1 |
| 20260506202505 | 20 | 76 | 0.0 | 4.8 | 0.00 | 0.25 | 0.25 | 82 | 1010.2 |
| 20260506202009 | 20 | 294 | 0.0 | 3.2 | 0.00 | 0.25 | 0.25 | 83 | 1010.2 |
| 20260506201526 | 20 | 298 | 0.0 | 3.2 | 0.00 | 0.25 | 0.25 | 82 | 1010.2 |
| 20260506201008 | 20 | 32 | 0.0 | 6.4 | 0.00 | 0.25 | 0.25 | 82 | 1010.3 |
| 20260506200508 | 20 | 37 | 0.0 | 6.4 | 0.00 | 0.25 | 0.25 | 81 | 1010.3 |
| 20260506200023 | 20 | 11 | 0.0 | 4.8 | 0.00 | 0.25 | 0.25 | 81 | 1010.2 |
| 20260506195505 | 20 | 352 | 0.0 | 3.2 | 0.00 | 0.25 | 0.25 | 83 | 1010.5 |
| 20260506195010 | 20 | 24 | 0.0 | 4.8 | 0.00 | 0.25 | 0.25 | 83 | 1009.8 |
| 20260506194525 | 20 | 98 | 0.0 | 6.4 | 0.00 | 0.25 | 0.25 | 82 | 1009.7 |
| 20260506194006 | 20 | 238 | 0.0 | 6.4 | 0.00 | 0.25 | 0.25 | 81 | 1009.6 |
| 20260506193509 | 20 | 163 | 1.6 | 6.4 | 0.00 | 0.25 | 0.25 | 81 | 1009.4 |
| 20260506193025 | 20 | 14 | 1.6 | 6.4 | 0.00 | 0.25 | 0.25 | 82 | 1009.5 |
| 20260506192507 | 20 | 102 | 0.0 | 4.8 | 0.00 | 0.25 | 0.25 | 83 | 1009.6 |
| 20260506192011 | 20 | 117 | 0.0 | 9.7 | 0.00 | 0.25 | 0.25 | 85 | 1009.9 |
| 20260506191527 | 19 | 219 | 0.0 | 9.7 | 0.00 | 0.25 | 0.25 | 84 | 1010.0 |
| 20260506191005 | 19 | 173 | 1.6 | 9.7 | 0.00 | 0.25 | 0.25 | 84 | 1010.3 |
| 20260506190509 | 19 | 145 | 0.0 | 9.7 | 0.00 | 0.25 | 0.25 | 85 | 1010.4 |
| 20260506190023 | 18 | 212 | 1.6 | 8.0 | 0.00 | 0.25 | 0.25 | 86 | 1010.5 |
| 20260506185507 | 18 | 82 | 0.0 | 3.2 | 0.00 | 0.25 | 0.25 | 87 | 1010.7 |
| 20260506185011 | 18 | 38 | 0.0 | 9.7 | 0.00 | 0.25 | 0.25 | 87 | 1010.9 |
| 20260506184527 | 18 | 117 | 0.0 | 9.7 | 0.00 | 0.25 | 0.25 | 87 | 1010.6 |
| 20260506184008 | 18 | 133 | 1.6 | 9.7 | 0.00 | 0.25 | 0.25 | 88 | 1010.6 |
| 20260506183509 | 18 | 138 | 0.0 | 6.4 | 0.00 | 0.25 | 0.25 | 88 | 1010.9 |
| 20260506183026 | 18 | 40 | 0.0 | 8.0 | 0.00 | 0.25 | 0.25 | 87 | 1011.0 |
| 20260506182507 | 18 | 79 | 1.6 | 9.7 | 0.00 | 0.25 | 0.25 | 87 | 1010.9 |
| 20260506182011 | 18 | 196 | 0.0 | 9.7 | 0.00 | 0.25 | 0.25 | 87 | 1011.2 |
| 20260506181529 | 18 | 120 | 1.6 | 8.0 | 0.00 | 0.25 | 0.25 | 86 | 1011.4 |
| 20260506181011 | 18 | 59 | 1.6 | 8.0 | 0.00 | 0.25 | 0.25 | 85 | 1011.5 |
| 20260506180517 | 18 | 9 | 0.0 | 8.0 | 0.00 | 0.25 | 0.25 | 86 | 1011.6 |
| 20260506180028 | 18 | 136 | 3.2 | 8.0 | 0.00 | 0.25 | 0.25 | 86 | 1011.6 |
| 20260506175509 | 18 | 189 | 1.6 | 9.7 | 0.00 | 0.25 | 0.25 | 86 | 1011.7 |
| 20260506175005 | 18 | 76 | 1.6 | 9.7 | 0.00 | 0.25 | 0.25 | 85 | 1011.8 |
| 20260506174514 | 18 | 169 | 3.2 | 9.7 | 0.00 | 0.25 | 0.25 | 85 | 1011.7 |
| 20260506174007 | 18 | 94 | 1.6 | 11.3 | 0.00 | 0.25 | 0.25 | 85 | 1011.6 |
| 20260506173501 | 18 | 195 | 3.2 | 11.3 | 0.00 | 0.25 | 0.25 | 85 | 1011.7 |
| 20260506173015 | 18 | 126 | 1.6 | 12.9 | 0.00 | 0.25 | 0.25 | 85 | 1011.6 |
| 20260506172507 | 18 | 106 | 0.0 | 12.9 | 0.00 | 0.25 | 0.25 | 86 | 1011.6 |
| 20260506172004 | 18 | 118 | 0.0 | 3.2 | 0.00 | 0.25 | 0.25 | 86 | 1011.5 |
| 20260506171525 | 18 | 144 | 0.0 | 11.3 | 0.00 | 0.25 | 0.25 | 86 | 1011.6 |
| 20260506171010 | 18 | 196 | 0.0 | 11.3 | 0.00 | 0.25 | 0.25 | 86 | 1011.5 |
| 20260506170503 | 18 | 114 | 1.6 | 9.7 | 0.00 | 0.25 | 0.25 | 86 | 1011.4 |
| 20260506170016 | 18 | 178 | 0.0 | 9.7 | 0.00 | 0.25 | 0.25 | 87 | 1011.6 |
| 20260506165508 | 18 | 234 | 1.6 | 9.7 | 0.00 | 0.25 | 0.25 | 87 | 1012.0 |
| 20260506165005 | 18 | 61 | 0.0 | 6.4 | 0.00 | 0.25 | 0.25 | 87 | 1012.0 |
| 20260506164520 | 17 | 211 | 0.0 | 16.1 | 0.00 | 0.25 | 0.25 | 87 | 1011.8 |
| 20260506164013 | 17 | 102 | 0.0 | 16.1 | 0.00 | 0.25 | 0.25 | 87 | 1011.8 |
| 20260506163506 | 17 | 140 | 3.2 | 14.5 | 0.00 | 0.25 | 0.25 | 87 | 1012.0 |
| 20260506163018 | 17 | 296 | 1.6 | 4.8 | 0.00 | 0.25 | 0.25 | 88 | 1012.0 |
| 20260506162503 | 17 | 123 | 0.0 | 6.4 | 0.00 | 0.25 | 0.25 | 88 | 1012.1 |
| 20260506162005 | 17 | 188 | 0.0 | 6.4 | 0.00 | 0.25 | 0.25 | 88 | 1011.9 |
| 20260506161523 | 17 | 153 | 1.6 | 9.7 | 0.00 | 0.25 | 0.25 | 88 | 1011.7 |
| 20260506161003 | 17 | 218 | 1.6 | 11.3 | 0.00 | 0.25 | 0.25 | 89 | 1011.7 |
| 20260506160506 | 17 | 308 | 0.0 | 11.3 | 0.00 | 0.25 | 0.25 | 89 | 1011.7 |
| 20260506160032 | 17 | 115 | 3.2 | 16.1 | 0.00 | 0.25 | 0.25 | 89 | 1011.7 |
| 20260506155503 | 17 | 209 | 4.8 | 16.1 | 0.00 | 0.25 | 0.25 | 89 | 1011.7 |
| 20260506155004 | 17 | 186 | 1.6 | 14.5 | 0.00 | 0.25 | 0.25 | 89 | 1011.8 |
| 20260506154527 | 17 | 117 | 1.6 | 14.5 | 0.03 | 0.25 | 0.25 | 89 | 1011.9 |
| 20260506154004 | 17 | 94 | 0.0 | 14.5 | 0.03 | 0.25 | 0.25 | 90 | 1012.1 |
| 20260506153504 | 17 | 253 | 1.6 | 6.4 | 0.03 | 0.25 | 0.25 | 90 | 1012.1 |
| 20260506153021 | 17 | 127 | 1.6 | 9.7 | 0.08 | 0.25 | 0.25 | 90 | 1012.3 |
| 20260506152502 | 17 | 142 | 0.0 | 8.0 | 0.10 | 0.25 | 0.25 | 90 | 1012.4 |
| 20260506152005 | 17 | 178 | 1.6 | 6.4 | 0.13 | 0.25 | 0.25 | 90 | 1012.4 |
| 20260506151532 | 17 | 221 | 0.0 | 4.8 | 0.13 | 0.25 | 0.25 | 91 | 1012.4 |
| 20260506151002 | 17 | 113 | 0.0 | 6.4 | 0.18 | 0.25 | 0.25 | 91 | 1012.4 |
| 20260506150509 | 16 | 167 | 0.0 | 6.4 | 0.20 | 0.25 | 0.25 | 91 | 1012.5 |
| 20260506150029 | 16 | 190 | 0.0 | 6.4 | 0.23 | 0.25 | 0.25 | 91 | 1012.4 |
| 20260506145502 | 16 | 158 | 0.0 | 6.4 | 0.23 | 0.25 | 0.25 | 91 | 1012.4 |
| 20260506145008 | 16 | 190 | 0.0 | 6.4 | 0.23 | 0.25 | 0.25 | 91 | 1012.4 |
| 20260506144524 | 16 | 126 | 1.6 | 6.4 | 0.23 | 0.23 | 0.23 | 91 | 1012.4 |
| 20260506144009 | 16 | 144 | 0.0 | 4.8 | 0.23 | 0.23 | 0.23 | 90 | 1012.4 |
| 20260506143510 | 16 | 200 | 0.0 | 4.8 | 0.23 | 0.23 | 0.23 | 90 | 1012.5 |
| 20260506143038 | 16 | 147 | 0.0 | 4.8 | 0.18 | 0.18 | 0.18 | 89 | 1012.7 |
| 20260506142505 | 16 | 109 | 0.0 | 4.8 | 0.15 | 0.15 | 0.15 | 89 | 1012.8 |
| 20260506142009 | 16 | 175 | 0.0 | 3.2 | 0.13 | 0.13 | 0.13 | 88 | 1012.9 |
| 20260506141525 | 16 | 163 | 0.0 | 4.8 | 0.13 | 0.13 | 0.13 | 87 | 1012.8 |
| 20260506141006 | 17 | 121 | 0.0 | 4.8 | 0.08 | 0.08 | 0.08 | 87 | 1012.8 |
| 20260506140508 | 17 | 157 | 0.0 | 8.0 | 0.05 | 0.05 | 0.05 | 86 | 1012.7 |
| 20260506140032 | 17 | 175 | 0.0 | 8.0 | 0.03 | 0.03 | 0.03 | 85 | 1012.6 |
| 20260506135507 | 17 | 167 | 1.6 | 9.7 | 0.03 | 0.03 | 0.03 | 83 | 1012.5 |
| 20260506135009 | 17 | 121 | 1.6 | 9.7 | 0.03 | 0.03 | 0.03 | 82 | 1012.5 |
| 20260506134527 | 17 | 84 | 3.2 | 12.9 | 0.00 | 0.00 | 0.00 | 80 | 1012.5 |
| 20260506134006 | 18 | 163 | 0.0 | 12.9 | 0.00 | 0.00 | 0.00 | 78 | 1012.5 |
| 20260506133507 | 18 | 107 | 0.0 | 16.1 | 0.00 | 0.00 | 0.00 | 76 | 1012.6 |
| 20260506133026 | 18 | 143 | 0.0 | 16.1 | 0.00 | 0.00 | 0.00 | 76 | 1012.5 |
| 20260506132513 | 18 | 114 | 3.2 | 16.1 | 0.00 | 0.00 | 0.00 | 75 | 1012.5 |
| 20260506132009 | 18 | 211 | 4.8 | 12.9 | 0.00 | 0.00 | 0.00 | 75 | 1012.5 |
| 20260506131529 | 18 | 150 | 1.6 | 4.8 | 0.00 | 0.00 | 0.00 | 75 | 1012.5 |
| 20260506131008 | 18 | 95 | 0.0 | 6.4 | 0.00 | 0.00 | 0.00 | 75 | 1012.7 |
| 20260506130507 | 18 | 139 | 0.0 | 12.9 | 0.00 | 0.00 | 0.00 | 75 | 1012.6 |
| 20260506130025 | 18 | 194 | 1.6 | 12.9 | 0.00 | 0.00 | 0.00 | 75 | 1012.5 |
| 20260506125505 | 18 | 133 | 3.2 | 14.5 | 0.00 | 0.00 | 0.00 | 76 | 1012.4 |
| 20260506125008 | 18 | 143 | 1.6 | 14.5 | 0.00 | 0.00 | 0.00 | 76 | 1012.4 |
| 20260506124525 | 18 | 142 | 4.8 | 12.9 | 0.00 | 0.00 | 0.00 | 76 | 1012.3 |
| 20260506124006 | 18 | 203 | 1.6 | 9.7 | 0.00 | 0.00 | 0.00 | 76 | 1012.4 |
| 20260506123510 | 18 | 166 | 1.6 | 9.7 | 0.00 | 0.00 | 0.00 | 76 | 1012.4 |
| 20260506123025 | 17 | 108 | 0.0 | 14.5 | 0.00 | 0.00 | 0.00 | 76 | 1012.3 |
| 20260506122504 | 17 | 167 | 0.0 | 14.5 | 0.00 | 0.00 | 0.00 | 76 | 1012.3 |
| 20260506122012 | 17 | 67 | 1.6 | 12.9 | 0.00 | 0.00 | 0.00 | 76 | 1012.2 |
| 20260506121528 | 18 | 202 | 4.8 | 14.5 | 0.00 | 0.00 | 0.00 | 75 | 1012.2 |
| 20260506121009 | 18 | 122 | 3.2 | 14.5 | 0.00 | 0.00 | 0.00 | 75 | 1012.2 |
| 20260506120514 | 18 | 150 | 3.2 | 14.5 | 0.00 | 0.00 | 0.00 | 75 | 1012.2 |
| 20260506120026 | 18 | 206 | 3.2 | 11.3 | 0.00 | 0.00 | 0.00 | 75 | 1012.3 |
| 20260506115508 | 18 | 172 | 1.6 | 6.4 | 0.00 | 0.00 | 0.00 | 75 | 1012.2 |
| 20260506115006 | 18 | 185 | 0.0 | 8.0 | 0.00 | 0.00 | 0.00 | 75 | 1012.2 |
| 20260506114539 | 18 | 191 | 1.6 | 16.1 | 0.00 | 0.00 | 0.00 | 75 | 1012.2 |
| 20260506114007 | 18 | 126 | 4.8 | 16.1 | 0.00 | 0.00 | 0.00 | 75 | 1012.2 |
| 20260506113512 | 18 | 96 | 0.0 | 8.0 | 0.00 | 0.00 | 0.00 | 76 | 1012.2 |
| 20260506113030 | 17 | 92 | 0.0 | 8.0 | 0.00 | 0.00 | 0.00 | 76 | 1012.2 |
| 20260506112511 | 17 | 145 | 1.6 | 9.7 | 0.00 | 0.00 | 0.00 | 76 | 1012.2 |
| 20260506112008 | 17 | 198 | 3.2 | 9.7 | 0.00 | 0.00 | 0.00 | 75 | 1012.1 |
| 20260506111527 | 17 | 278 | 3.2 | 12.9 | 0.00 | 0.00 | 0.00 | 75 | 1012.1 |
| 20260506111008 | 17 | 160 | 4.8 | 12.9 | 0.00 | 0.00 | 0.00 | 75 | 1012.0 |
| 20260506110516 | 17 | 223 | 3.2 | 11.3 | 0.00 | 0.00 | 0.00 | 76 | 1011.9 |
| 20260506110034 | 17 | 205 | 3.2 | 11.3 | 0.00 | 0.00 | 0.00 | 75 | 1011.9 |
| 20260506105506 | 17 | 98 | 3.2 | 11.3 | 0.00 | 0.00 | 0.00 | 75 | 1012.1 |
| 20260506105013 | 17 | 170 | 1.6 | 9.7 | 0.00 | 0.00 | 0.00 | 75 | 1012.1 |
| 20260506104513 | 17 | 120 | 1.6 | 12.9 | 0.00 | 0.00 | 0.00 | 75 | 1012.2 |
| 20260506104010 | 17 | 146 | 1.6 | 12.9 | 0.00 | 0.00 | 0.00 | 75 | 1012.2 |
| 20260506103511 | 17 | 126 | 4.8 | 9.7 | 0.00 | 0.00 | 0.00 | 75 | 1012.2 |
| 20260506103017 | 17 | 175 | 1.6 | 6.4 | 0.00 | 0.00 | 0.00 | 75 | 1012.4 |
| 20260506102509 | 17 | 192 | 0.0 | 6.4 | 0.00 | 0.00 | 0.00 | 75 | 1012.5 |
| 20260506102012 | 17 | 194 | 1.6 | 9.7 | 0.00 | 0.00 | 0.00 | 75 | 1012.4 |
| 20260506101532 | 17 | 119 | 1.6 | 9.7 | 0.00 | 0.00 | 0.00 | 75 | 1012.3 |
| 20260506101012 | 17 | 193 | 0.0 | 6.4 | 0.00 | 0.00 | 0.00 | 75 | 1012.2 |
| 20260506100513 | 17 | 85 | 0.0 | 6.4 | 0.00 | 0.00 | 0.00 | 75 | 1012.2 |
| 20260506100015 | 17 | 56 | 1.6 | 6.4 | 0.00 | 0.00 | 0.00 | 75 | 1012.1 |
| 20260506095508 | 17 | 167 | 0.0 | 4.8 | 0.00 | 0.00 | 0.00 | 75 | 1012.1 |
| 20260506095011 | 17 | 239 | 0.0 | 4.8 | 0.00 | 0.00 | 0.00 | 75 | 1012.1 |
| 20260506094518 | 17 | 201 | 0.0 | 6.4 | 0.00 | 0.00 | 0.00 | 75 | 1012.1 |
| 20260506094010 | 17 | 194 | 1.6 | 9.7 | 0.00 | 0.00 | 0.00 | 75 | 1012.1 |
| 20260506093514 | 17 | 119 | 0.0 | 12.9 | 0.00 | 0.00 | 0.00 | 75 | 1012.1 |
| 20260506093020 | 17 | 134 | 3.2 | 12.9 | 0.00 | 0.00 | 0.00 | 75 | 1012.0 |
| 20260506092508 | 17 | 215 | 3.2 | 12.9 | 0.00 | 0.00 | 0.00 | 75 | 1012.0 |
| 20260506092014 | 17 | 116 | 3.2 | 6.4 | 0.00 | 0.00 | 0.00 | 75 | 1012.0 |
| 20260506091522 | 17 | 153 | 0.0 | 11.3 | 0.00 | 0.00 | 0.00 | 76 | 1012.0 |
| 20260506091010 | 17 | 194 | 1.6 | 11.3 | 0.00 | 0.00 | 0.00 | 76 | 1012.0 |
| 20260506090507 | 17 | 146 | 3.2 | 11.3 | 0.00 | 0.00 | 0.00 | 76 | 1012.1 |
| 20260506090022 | 17 | 150 | 1.6 | 11.3 | 0.00 | 0.00 | 0.00 | 76 | 1012.2 |
| 20260506085502 | 17 | 142 | 0.0 | 9.7 | 0.00 | 0.00 | 0.00 | 76 | 1012.2 |
| 20260506085009 | 17 | 163 | 3.2 | 14.5 | 0.00 | 0.00 | 0.00 | 76 | 1012.2 |
| 20260506084512 | 17 | 158 | 1.6 | 16.1 | 0.00 | 0.00 | 0.00 | 76 | 1012.2 |
| 20260506084003 | 17 | 153 | 3.2 | 16.1 | 0.00 | 0.00 | 0.00 | 76 | 1012.3 |
| 20260506083508 | 17 | 169 | 1.6 | 12.9 | 0.00 | 0.00 | 0.00 | 76 | 1012.3 |
| 20260506083003 | 17 | 198 | 1.6 | 8.0 | 0.00 | 0.00 | 0.00 | 76 | 1012.4 |
| 20260506082503 | 17 | 201 | 0.0 | 8.0 | 0.00 | 0.00 | 0.00 | 76 | 1012.4 |
| 20260506082007 | 17 | 154 | 1.6 | 8.0 | 0.00 | 0.00 | 0.00 | 75 | 1012.5 |
| 20260506081507 | 17 | 203 | 0.0 | 4.8 | 0.00 | 0.00 | 0.00 | 75 | 1012.5 |
| 20260506081003 | 17 | 132 | 0.0 | 14.5 | 0.00 | 0.00 | 0.00 | 75 | 1012.4 |
| 20260506080511 | 17 | 138 | 3.2 | 14.5 | 0.00 | 0.00 | 0.00 | 75 | 1012.4 |
| 20260506073509 | 18 | 117 | 1.6 | 22.5 | 0.00 | 0.00 | 0.00 | 74 | 1012.5 |
| 20260506073004 | 18 | 107 | 4.8 | 22.5 | 0.00 | 0.00 | 0.00 | 73 | 1012.4 |
| 20260506072513 | 18 | 165 | 1.6 | 14.5 | 0.00 | 0.00 | 0.00 | 73 | 1012.4 |
| 20260506072010 | 18 | 207 | 1.6 | 9.7 | 0.00 | 0.00 | 0.00 | 73 | 1012.5 |
| 20260506071503 | 18 | 101 | 1.6 | 9.7 | 0.00 | 0.00 | 0.00 | 72 | 1012.5 |
| 20260506071008 | 18 | 198 | 1.6 | 9.7 | 0.00 | 0.00 | 0.00 | 72 | 1012.5 |
| 20260506070506 | 18 | 233 | 3.2 | 9.7 | 0.00 | 0.00 | 0.00 | 72 | 1012.5 |
| 20260506062511 | 18 | 155 | 3.2 | 14.5 | 0.00 | 0.00 | 0.00 | 71 | 1012.8 |
| 20260506062009 | 18 | 166 | 3.2 | 14.5 | 0.00 | 0.00 | 0.00 | 70 | 1012.9 |
| 20260506061504 | 18 | 157 | 4.8 | 11.3 | 0.00 | 0.00 | 0.00 | 70 | 1012.8 |
| 20260506061011 | 18 | 126 | 1.6 | 14.5 | 0.00 | 0.00 | 0.00 | 70 | 1012.7 |
| 20260506060507 | 19 | 199 | 3.2 | 14.5 | 0.00 | 0.00 | 0.00 | 70 | 1012.8 |
| 20260506051009 | 20 | 128 | 4.8 | 14.5 | 0.00 | 0.00 | 0.00 | 68 | 1013.2 |
| 20260506050508 | 20 | 153 | 3.2 | 12.9 | 0.00 | 0.00 | 0.00 | 68 | 1013.1 |
| 20260506045004 | 20 | 212 | 3.2 | 11.3 | 0.00 | 0.00 | 0.00 | 67 | 1013.3 |
| 20260506044511 | 20 | 180 | 1.6 | 11.3 | 0.00 | 0.00 | 0.00 | 66 | 1013.4 |
| 20260506044017 | 20 | 158 | 3.2 | 11.3 | 0.00 | 0.00 | 0.00 | 66 | 1013.4 |
| 20260506043503 | 20 | 131 | 1.6 | 9.7 | 0.00 | 0.00 | 0.00 | 65 | 1013.5 |
| 20260506043012 | 20 | 103 | 3.2 | 14.5 | 0.00 | 0.00 | 0.00 | 65 | 1013.5 |
| 20260506042506 | 20 | 344 | 1.6 | 14.5 | 0.00 | 0.00 | 0.00 | 64 | 1013.5 |
| 20260506042007 | 20 | 117 | 4.8 | 14.5 | 0.00 | 0.00 | 0.00 | 64 | 1013.4 |
| 20260506041525 | 20 | 169 | 3.2 | 11.3 | 0.00 | 0.00 | 0.00 | 63 | 1013.4 |
| 20260506041009 | 21 | 145 | 1.6 | 11.3 | 0.00 | 0.00 | 0.00 | 62 | 1013.5 |
| 20260506040502 | 21 | 101 | 1.6 | 11.3 | 0.00 | 0.00 | 0.00 | 62 | 1013.5 |
| 20260506040014 | 21 | 206 | 3.2 | 11.3 | 0.00 | 0.00 | 0.00 | 61 | 1013.4 |
| 20260506035508 | 21 | 139 | 1.6 | 19.3 | 0.00 | 0.00 | 0.00 | 61 | 1013.4 |
| 20260506035004 | 21 | 189 | 0.0 | 20.9 | 0.00 | 0.00 | 0.00 | 60 | 1013.3 |
| 20260506034515 | 21 | 156 | 6.4 | 20.9 | 0.00 | 0.00 | 0.00 | 60 | 1013.4 |
| 20260506034009 | 21 | 112 | 1.6 | 14.5 | 0.00 | 0.00 | 0.00 | 60 | 1013.3 |
| 20260506033503 | 21 | 211 | 1.6 | 14.5 | 0.00 | 0.00 | 0.00 | 60 | 1013.3 |
| 20260506033017 | 21 | 71 | 4.8 | 12.9 | 0.00 | 0.00 | 0.00 | 60 | 1013.4 |
| 20260506032513 | 21 | 181 | 3.2 | 12.9 | 0.00 | 0.00 | 0.00 | 59 | 1013.3 |
| 20260506032007 | 21 | 65 | 3.2 | 11.3 | 0.00 | 0.00 | 0.00 | 60 | 1013.4 |
| 20260506031523 | 21 | 142 | 1.6 | 12.9 | 0.00 | 0.00 | 0.00 | 59 | 1013.4 |
| 20260506031009 | 21 | 107 | 3.2 | 12.9 | 0.00 | 0.00 | 0.00 | 59 | 1013.3 |
| 20260506030508 | 21 | 186 | 3.2 | 9.7 | 0.00 | 0.00 | 0.00 | 58 | 1013.3 |
| 20260506030023 | 21 | 200 | 1.6 | 8.0 | 0.00 | 0.00 | 0.00 | 58 | 1013.3 |
| 20260506025508 | 21 | 148 | 0.0 | 6.4 | 0.00 | 0.00 | 0.00 | 58 | 1013.3 |
| 20260506025009 | 21 | 136 | 0.0 | 11.3 | 0.00 | 0.00 | 0.00 | 58 | 1013.3 |
| 20260506024520 | 21 | 111 | 3.2 | 11.3 | 0.00 | 0.00 | 0.00 | 58 | 1013.3 |
| 20260506024010 | 21 | 175 | 0.0 | 6.4 | 0.00 | 0.00 | 0.00 | 57 | 1013.4 |
| 20260506023505 | 21 | 162 | 1.6 | 9.7 | 0.00 | 0.00 | 0.00 | 57 | 1013.4 |
| 20260506023018 | 22 | 119 | 0.0 | 9.7 | 0.00 | 0.00 | 0.00 | 57 | 1013.3 |
| 20260506022509 | 22 | 192 | 1.6 | 12.9 | 0.00 | 0.00 | 0.00 | 57 | 1013.4 |
| 20260506022004 | 22 | 143 | 1.6 | 12.9 | 0.00 | 0.00 | 0.00 | 56 | 1013.3 |
| 20260506021520 | 22 | 186 | 0.0 | 8.0 | 0.00 | 0.00 | 0.00 | 56 | 1013.3 |
| 20260506021010 | 22 | 163 | 1.6 | 11.3 | 0.00 | 0.00 | 0.00 | 55 | 1013.3 |
| 20260506020510 | 22 | 110 | 3.2 | 14.5 | 0.00 | 0.00 | 0.00 | 55 | 1013.3 |
| 20260506020024 | 22 | 163 | 3.2 | 14.5 | 0.00 | 0.00 | 0.00 | 55 | 1013.3 |
| 20260506015510 | 22 | 145 | 3.2 | 9.7 | 0.00 | 0.00 | 0.00 | 54 | 1013.2 |
| 20260506015006 | 22 | 127 | 0.0 | 8.0 | 0.00 | 0.00 | 0.00 | 54 | 1013.2 |
| 20260506014532 | 22 | 136 | 1.6 | 12.9 | 0.00 | 0.00 | 0.00 | 54 | 1013.1 |
| 20260506014009 | 22 | 114 | 1.6 | 12.9 | 0.00 | 0.00 | 0.00 | 54 | 1013.1 |
| 20260506013506 | 22 | 71 | 0.0 | 14.5 | 0.00 | 0.00 | 0.00 | 54 | 1013.1 |
| 20260506013028 | 22 | 189 | 0.0 | 14.5 | 0.00 | 0.00 | 0.00 | 54 | 1013.0 |
| 20260506012510 | 22 | 131 | 1.6 | 12.9 | 0.00 | 0.00 | 0.00 | 53 | 1013.0 |
| 20260506012008 | 22 | 117 | 0.0 | 11.3 | 0.00 | 0.00 | 0.00 | 53 | 1012.9 |
| 20260506011528 | 23 | 184 | 0.0 | 11.3 | 0.00 | 0.00 | 0.00 | 52 | 1012.7 |
| 20260506011008 | 23 | 148 | 1.6 | 12.9 | 0.00 | 0.00 | 0.00 | 52 | 1012.7 |
| 20260506010505 | 23 | 112 | 0.0 | 12.9 | 0.00 | 0.00 | 0.00 | 51 | 1012.7 |
| 20260506010027 | 23 | 157 | 1.6 | 11.3 | 0.00 | 0.00 | 0.00 | 52 | 1012.6 |
| 20260506005510 | 23 | 150 | 1.6 | 11.3 | 0.00 | 0.00 | 0.00 | 51 | 1012.5 |
| 20260506005010 | 23 | 192 | 1.6 | 12.9 | 0.00 | 0.00 | 0.00 | 50 | 1012.5 |
| 20260506004535 | 23 | 150 | 3.2 | 12.9 | 0.00 | 0.00 | 0.00 | 50 | 1012.4 |
| 20260506004010 | 23 | 157 | 3.2 | 11.3 | 0.00 | 0.00 | 0.00 | 50 | 1012.4 |
| 20260506003507 | 23 | 173 | 1.6 | 11.3 | 0.00 | 0.00 | 0.00 | 50 | 1012.3 |
| 20260506003024 | 23 | 168 | 3.2 | 9.7 | 0.00 | 0.00 | 0.00 | 49 | 1012.2 |
| 20260506002511 | 23 | 157 | 1.6 | 9.7 | 0.00 | 0.00 | 0.00 | 49 | 1012.2 |
| 20260506002007 | 23 | 136 | 1.6 | 9.7 | 0.00 | 0.00 | 0.00 | 49 | 1012.3 |
| 20260506001524 | 23 | 175 | 0.0 | 9.7 | 0.00 | 0.00 | 0.00 | 49 | 1012.2 |
| 20260506001008 | 24 | 115 | 3.2 | 9.7 | 0.00 | 0.00 | 0.00 | 48 | 1012.2 |
| 20260506000509 | 24 | 169 | 0.0 | 8.0 | 0.00 | 0.00 | 0.00 | 48 | 1012.1 |
| 20260506000034 | 24 | 192 | 1.6 | 8.0 | 0.00 | 0.00 | 0.00 | 47 | 1012.1 |
| 20260505235511 | 24 | 189 | 0.0 | 6.4 | 0.00 | 0.00 | 0.00 | 47 | 1012.1 |
| 20260505235003 | 25 | 187 | 0.0 | 14.5 | 0.00 | 0.00 | 0.00 | 47 | 1012.1 |
| 20260505234512 | 25 | 119 | 0.0 | 14.5 | 0.00 | 0.00 | 0.00 | 46 | 1012.1 |
| 20260505234003 | 25 | 190 | 3.2 | 14.5 | 0.00 | 0.00 | 0.00 | 45 | 1012.0 |
| 20260505233506 | 25 | 169 | 3.2 | 8.0 | 0.00 | 0.00 | 0.00 | 45 | 1011.9 |
| 20260505233004 | 25 | 188 | 1.6 | 8.0 | 0.00 | 0.00 | 0.00 | 45 | 1012.0 |
| 20260505232509 | 25 | 322 | 1.6 | 12.9 | 0.00 | 0.00 | 0.00 | 45 | 1011.9 |
| 20260505232004 | 25 | 164 | 1.6 | 12.9 | 0.00 | 0.00 | 0.00 | 45 | 1011.9 |
| 20260505231506 | 25 | 150 | 1.6 | 4.8 | 0.00 | 0.00 | 0.00 | 44 | 1012.1 |
| 20260505231004 | 25 | 74 | 0.0 | 8.0 | 0.00 | 0.00 | 0.00 | 44 | 1011.9 |
| 20260505230503 | 25 | 130 | 1.6 | 6.4 | 0.00 | 0.00 | 0.00 | 44 | 1011.9 |
| 20260505230005 | 25 | 150 | 0.0 | 4.8 | 0.00 | 0.00 | 0.00 | 43 | 1011.9 |
| 20260505225506 | 25 | 183 | 0.0 | 4.8 | 0.00 | 0.00 | 0.00 | 43 | 1012.0 |
| 20260505225004 | 26 | 117 | 0.0 | 11.3 | 0.00 | 0.00 | 0.00 | 42 | 1012.0 |
| 20260505224507 | 26 | 117 | 0.0 | 11.3 | 0.00 | 0.00 | 0.00 | 42 | 1012.1 |
| 20260505224007 | 26 | 211 | 3.2 | 14.5 | 0.00 | 0.00 | 0.00 | 41 | 1012.2 |
| 20260505223505 | 26 | 123 | 3.2 | 14.5 | 0.00 | 0.00 | 0.00 | 40 | 1012.1 |
| 20260505223009 | 26 | 134 | 6.4 | 14.5 | 0.00 | 0.00 | 0.00 | 40 | 1012.0 |
| 20260505222507 | 26 | 207 | 1.6 | 8.0 | 0.00 | 0.00 | 0.00 | 41 | 1012.1 |
| 20260505222005 | 26 | 212 | 1.6 | 19.3 | 0.00 | 0.00 | 0.00 | 41 | 1012.0 |
| 20260505221508 | 26 | 138 | 3.2 | 19.3 | 0.00 | 0.00 | 0.00 | 39 | 1011.9 |
| 20260505221006 | 26 | 94 | 3.2 | 19.3 | 0.00 | 0.00 | 0.00 | 39 | 1011.8 |
| 20260505220503 | 26 | 143 | 1.6 | 14.5 | 0.00 | 0.00 | 0.00 | 38 | 1011.9 |
| 20260505220023 | 26 | 190 | 3.2 | 14.5 | 0.00 | 0.00 | 0.00 | 38 | 1011.9 |
| 20260505215510 | 26 | 100 | 1.6 | 8.0 | 0.00 | 0.00 | 0.00 | 37 | 1011.9 |
| 20260505215004 | 26 | 205 | 3.2 | 11.3 | 0.00 | 0.00 | 0.00 | 37 | 1012.0 |
| 20260505214514 | 27 | 122 | 3.2 | 14.5 | 0.00 | 0.00 | 0.00 | 35 | 1011.9 |
| 20260505214010 | 26 | 80 | 1.6 | 14.5 | 0.00 | 0.00 | 0.00 | 36 | 1011.9 |
| 20260505213502 | 26 | 179 | 1.6 | 12.9 | 0.00 | 0.00 | 0.00 | 37 | 1012.0 |
| 20260505213012 | 26 | 182 | 0.0 | 14.5 | 0.00 | 0.00 | 0.00 | 36 | 1011.9 |
| 20260505212509 | 26 | 225 | 1.6 | 16.1 | 0.00 | 0.00 | 0.00 | 34 | 1011.9 |
| 20260505212002 | 26 | 203 | 3.2 | 16.1 | 0.00 | 0.00 | 0.00 | 34 | 1012.0 |
| 20260505211512 | 27 | 159 | 3.2 | 16.1 | 0.00 | 0.00 | 0.00 | 34 | 1012.1 |
| 20260505211009 | 27 | 84 | 4.8 | 16.1 | 0.00 | 0.00 | 0.00 | 33 | 1012.0 |
| 20260505210503 | 27 | 144 | 3.2 | 14.5 | 0.00 | 0.00 | 0.00 | 35 | 1012.0 |
| 20260505210015 | 27 | 107 | 3.2 | 14.5 | 0.00 | 0.00 | 0.00 | 35 | 1012.0 |
| 20260505205515 | 27 | 111 | 6.4 | 19.3 | 0.00 | 0.00 | 0.00 | 34 | 1012.0 |